Find Starlink 36661

NORAD ID: 67831 Int'l Des: 2026-033 Owner: SPXS Country: US Constellation: starlink operational
LEOCIRCULAR

Current View

Loading 3D Globe...

About Starlink 36661

Description loading...

Upcoming Passes

Passes for default location (London). Set your location on the main map for personalized predictions.

Altitude History

Loading altitude history...

Two-Line Element Set

1 67831U 26033L 26146.13622509 .00019519 00000-0 71660-3 0 9994
2 67831 42.9992 190.1013 0001751 284.7968 75.2690 15.27596029 16513
Epoch: May 26, 2026 • Age: 10 hours

Current Status

Altitude 486.1 km
Velocity 7.63 km/s
Sub-Earth Point 38.81°N, 168.15°E
Launch Date Feb 16, 2026
Age 0.2 years
Type internet

Technical Details

Classification Payload
Mass 575.00 kg
Dry Mass 530.00 kg
Total Mass 575.00 kg
Length 0.30 m
Diameter 4.10 m
Span 29.00 m
Shape Box + pan
Manufacturer SPXS
Bus Type Starlink V2MO
Phase Status In Orbit
Owner/State SPXS/US

Most Searched